Rbgn^[z[y[W
メイン
   新天体発見情報
     Comet C/2017 K1 (PANSTARRS)
投稿するにはまず登録を

スレッド表示 | 新しいものから 前のトピック | 次のトピック | 下へ
投稿者 スレッド
佐藤裕久
投稿日時: 2017-6-4 22:31
モデレータ
登録日: 2005-6-12
居住地: 日本
投稿: 1822
オンライン
Comet C/2017 K1 (PANSTARRS)

R. J. Wainscoatの通報によると、5月21日、Haleakalaにある1.8-m Pan-STARRS1望遠鏡で得た4枚の45秒
w-バンドCCD画像から彗星を発見した。
この天体は明らかにソフトで、半値全幅(FWHM)は2".0で比較した隣接する恒星は1".0であった。
尾の痕跡はなかった。
5月23.47日UT、WainscoatとD. Woodworthが、Mauna Keaにある3.6-m Canada-France-Hawaii Telescope
で得た9枚の60秒w-フィルター確認露出では、この彗星はいずれの画像も拡張しており、FWHMは1".7で比較
した隣接する恒星はおよそ0".9で、G-バンドによる光度は19.8等であった。
小惑星センターのPCCP webpageに公表後、佐藤英貴氏(東京都文京区, iTelescope天文台,5月22.6日UT, 
0.51-m f/6.8 アストログラフ, Siding Spring, 遠隔操作:強い集光のある6" x 8" のコマを見つけたが
尾はなかった。4".9の円形範囲で測定したこの彗星のw-バンド光度は19.2等であった)は彗星状と観測した。

発見位置は次のとおり、

     2017 UT             R.A. (2000) Decl.       Mag.
     May  21.40011   15 45 41.77   -28 17 47.7   20.3
          21.41065   15 45 41.17   -28 17 44.8   20.4
          21.42120   15 45 40.58   -28 17 41.6   20.4
          21.43174   15 45 39.97   -28 17 38.6   20.3

暫定放物線軌道要素と位置推算表は次のとおり、

Orbital elements:
    C/2017 K1 (PANSTARRS)
T 2018 Oct. 25.77641 TT                                 MPCW
q   6.5749977            (2000.0)            P               Q
                   Peri.   23.80052     -0.89309414     -0.31019570
                   Node   226.21444     -0.44985639     +0.62138779
e   1.0            Incl.  153.17153     +0.00347653     +0.71948304
From 17 observations 2017 May 21-23.

Ephemeris:
    C/2017 K1 (PANSTARRS)
Date    TT    R. A. (2000) Decl.     Delta      r     Elong.  Phase   m1
2017 04 24    16 10 26.0 -30 06 23   6.6586  7.5174   146.5     4.2  19.9
...
2017 05 09    15 57 15.0 -29 12 45   6.5002  7.4707   162.9     2.3  19.8
...
2017 05 17    15 49 49.1 -28 38 18   6.4482  7.4462   170.0     1.3  19.8
...
2017 05 23    15 44 12.0 -28 10 04   6.4248  7.4280   171.7     1.1  19.7
2017 05 24    15 43 15.9 -28 05 12   6.4222  7.4249   171.4     1.2  19.7
2017 05 25    15 42 19.9 -28 00 16   6.4200  7.4219   171.0     1.2  19.7
...
2017 05 31    15 36 47.5 -27 29 47   6.4146  7.4039   166.4     1.8  19.7
...
2017 06 08    15 29 38.6 -26 47 17   6.4281  7.3801   158.2     2.9  19.7
...
2017 06 23    15 17 26.8 -25 24 55   6.5123  7.3362   141.6     4.9  19.7

(CBET 4392、MPEC 2017-K34)


スレッド表示 | 新しいものから 前のトピック | 次のトピック | トップ

投稿するにはまず登録を
 
© 1999-2013 Tsutomu Seki.